Time,TemperatureF,DewpointF,PressureIn,WindDirection,WindDirectionDegrees,WindSpeedMPH,WindSpeedGustMPH,Humidity,HourlyPrecipIn,Conditions,Clouds,dailyrainin,SolarRadiationWatts/m^2,SoftwareType,DateUTC
2013-10-11 00:00:00,54.7,51.8,29.99,NE,50,1.0,1.0,90,0.00,,,0.00,0.0,meteohub,2013-10-11 04:00:00,
2013-10-11 00:01:00,54.9,52.0,29.99,NE,50,1.0,1.0,90,0.00,,,0.00,0.0,meteohub,2013-10-11 04:01:00,
2013-10-11 00:03:00,54.9,51.6,29.99,NE,50,1.0,1.0,89,0.00,,,0.00,0.0,meteohub,2013-10-11 04:03:00,
2013-10-11 00:05:00,55.0,51.8,29.99,NE,50,0.0,1.0,89,0.00,,,0.00,0.0,meteohub,2013-10-11 04:05:00,
2013-10-11 00:10:00,55.6,51.8,29.99,NE,50,0.0,1.0,87,0.00,,,0.00,0.0,meteohub,2013-10-11 04:10:00,
2013-10-11 00:15:00,55.6,51.8,29.99,NE,50,0.0,1.0,87,0.00,,,0.00,0.0,meteohub,2013-10-11 04:15:00,
2013-10-11 00:21:00,55.4,51.6,29.98,NE,50,0.0,1.0,87,0.00,,,0.00,0.0,meteohub,2013-10-11 04:21:00,
2013-10-11 00:26:00,55.4,51.6,29.98,NE,50,0.0,1.0,87,0.00,,,0.00,0.0,meteohub,2013-10-11 04:26:00,
2013-10-11 00:31:00,55.4,51.3,29.99,NE,50,0.0,1.0,86,0.00,,,0.00,0.0,meteohub,2013-10-11 04:31:00,
2013-10-11 00:36:00,55.6,51.4,29.98,NE,50,0.0,1.0,86,0.00,,,0.00,0.0,meteohub,2013-10-11 04:36:00,
2013-10-11 00:41:00,55.6,51.8,29.98,NE,50,0.0,1.0,87,0.00,,,0.00,0.0,meteohub,2013-10-11 04:41:00,
2013-10-11 00:46:00,55.6,51.4,29.98,NE,50,0.0,1.0,86,0.00,,,0.00,0.0,meteohub,2013-10-11 04:46:00,
2013-10-11 00:51:00,55.6,51.4,29.98,NE,50,0.0,1.0,86,0.00,,,0.00,0.0,meteohub,2013-10-11 04:51:00,
2013-10-11 00:56:00,55.6,51.4,29.98,NE,50,0.0,1.0,86,0.00,,,0.00,0.0,meteohub,2013-10-11 04:56:00,
2013-10-11 01:01:00,55.6,51.1,29.98,NE,50,1.0,1.0,85,0.00,,,0.00,0.0,meteohub,2013-10-11 05:01:00,
2013-10-11 01:06:00,55.8,51.1,29.98,NE,50,0.0,2.0,84,0.00,,,0.00,0.0,meteohub,2013-10-11 05:06:00,
2013-10-11 01:12:00,55.9,51.4,29.98,NE,50,0.0,2.0,85,0.00,,,0.00,0.0,meteohub,2013-10-11 05:12:00,
2013-10-11 01:17:00,55.9,51.4,29.98,NE,50,0.0,2.0,85,0.00,,,0.00,0.0,meteohub,2013-10-11 05:17:00,
2013-10-11 01:22:00,55.9,51.3,29.98,NE,50,0.0,1.0,84,0.00,,,0.00,0.0,meteohub,2013-10-11 05:22:00,
2013-10-11 01:27:00,55.9,51.3,29.98,NE,50,0.0,1.0,84,0.00,,,0.00,0.0,meteohub,2013-10-11 05:27:00,
2013-10-11 01:32:00,55.9,51.3,29.98,NE,50,0.0,1.0,84,0.00,,,0.00,0.0,meteohub,2013-10-11 05:32:00,
2013-10-11 01:37:00,55.9,51.3,29.98,NE,50,0.0,1.0,84,0.00,,,0.00,0.0,meteohub,2013-10-11 05:37:00,
2013-10-11 01:42:00,55.9,51.3,29.98,NE,49,1.0,2.0,84,0.00,,,0.00,0.0,meteohub,2013-10-11 05:42:00,
2013-10-11 01:47:00,56.1,51.1,29.98,NE,49,0.0,2.0,83,0.00,,,0.00,0.0,meteohub,2013-10-11 05:47:00,
2013-10-11 01:52:00,56.1,51.1,29.98,NE,49,1.0,3.0,83,0.00,,,0.00,0.0,meteohub,2013-10-11 05:52:00,
2013-10-11 01:57:00,56.1,51.1,29.98,NE,49,0.0,3.0,83,0.00,,,0.00,0.0,meteohub,2013-10-11 05:57:00,
2013-10-11 02:02:00,56.3,51.3,29.97,NE,49,0.0,3.0,83,0.00,,,0.00,0.0,meteohub,2013-10-11 06:02:00,
2013-10-11 02:07:00,56.1,51.6,29.97,NE,49,0.0,2.0,85,0.00,,,0.00,0.0,meteohub,2013-10-11 06:07:00,
2013-10-11 02:12:00,56.1,51.6,29.98,NE,49,0.0,2.0,85,0.00,,,0.00,0.0,meteohub,2013-10-11 06:12:00,
2013-10-11 02:17:00,55.9,51.8,29.98,NE,49,0.0,2.0,86,0.00,,,0.00,0.0,meteohub,2013-10-11 06:17:00,
2013-10-11 02:22:00,55.8,51.6,29.97,NE,49,0.0,2.0,86,0.00,,,0.00,0.0,meteohub,2013-10-11 06:22:00,
2013-10-11 02:27:00,55.6,51.4,29.97,NE,49,0.0,1.0,86,0.00,,,0.00,0.0,meteohub,2013-10-11 06:27:00,
2013-10-11 02:32:00,55.8,51.6,29.97,NE,49,0.0,2.0,86,0.00,,,0.00,0.0,meteohub,2013-10-11 06:32:00,
2013-10-11 02:37:00,55.8,51.3,29.97,NE,49,1.0,2.0,85,0.00,,,0.00,0.0,meteohub,2013-10-11 06:37:00,
2013-10-11 02:42:00,55.9,51.3,29.97,NE,46,0.0,2.0,84,0.00,,,0.00,0.0,meteohub,2013-10-11 06:42:00,
2013-10-11 02:47:00,55.9,51.3,29.97,NE,46,0.0,2.0,84,0.00,,,0.00,0.0,meteohub,2013-10-11 06:47:00,
2013-10-11 02:52:00,55.9,51.3,29.97,NE,46,0.0,2.0,84,0.00,,,0.00,0.0,meteohub,2013-10-11 06:52:00,
2013-10-11 02:57:00,55.9,51.4,29.97,NE,46,1.0,2.0,85,0.00,,,0.00,0.0,meteohub,2013-10-11 06:57:00,
2013-10-11 03:02:00,55.9,51.4,29.97,NE,46,1.0,2.0,85,0.00,,,0.00,0.0,meteohub,2013-10-11 07:02:00,
2013-10-11 03:07:00,55.9,51.3,29.97,NE,46,2.0,3.0,84,0.00,,,0.00,0.0,meteohub,2013-10-11 07:07:00,
2013-10-11 03:12:00,55.9,51.3,29.97,NE,46,1.0,3.0,84,0.00,,,0.00,0.0,meteohub,2013-10-11 07:12:00,
2013-10-11 03:17:00,55.8,51.1,29.97,NE,46,1.0,3.0,84,0.00,,,0.00,0.0,meteohub,2013-10-11 07:17:00,
2013-10-11 03:22:00,55.8,51.3,29.96,NE,46,0.0,3.0,85,0.00,,,0.00,0.0,meteohub,2013-10-11 07:22:00,
2013-10-11 03:27:00,55.6,51.1,29.96,NE,46,0.0,3.0,85,0.00,,,0.00,0.0,meteohub,2013-10-11 07:27:00,
2013-10-11 03:32:00,55.6,51.1,29.96,NE,46,0.0,3.0,85,0.00,,,0.00,0.0,meteohub,2013-10-11 07:32:00,
2013-10-11 03:37:00,55.6,51.1,29.96,NE,46,1.0,2.0,85,0.00,,,0.00,0.0,meteohub,2013-10-11 07:37:00,
2013-10-11 03:42:00,55.6,51.1,29.96,NE,46,1.0,2.0,85,0.00,,,0.00,0.0,meteohub,2013-10-11 07:42:00,
2013-10-11 03:47:00,55.6,51.1,29.96,NE,46,0.0,2.0,85,0.00,,,0.00,0.0,meteohub,2013-10-11 07:47:00,
2013-10-11 03:52:00,55.8,51.3,29.96,NE,46,0.0,2.0,85,0.00,,,0.00,0.0,meteohub,2013-10-11 07:52:00,
2013-10-11 03:57:00,55.6,51.1,29.96,NE,46,0.0,2.0,85,0.00,,,0.00,0.0,meteohub,2013-10-11 07:57:00,
2013-10-11 04:02:00,55.6,51.1,29.96,NE,46,1.0,2.0,85,0.00,,,0.00,0.0,meteohub,2013-10-11 08:02:00,
2013-10-11 04:07:00,55.6,51.1,29.96,NE,46,0.0,2.0,85,0.00,,,0.00,0.0,meteohub,2013-10-11 08:07:00,
2013-10-11 04:12:00,55.4,50.9,29.96,NE,46,0.0,2.0,85,0.00,,,0.00,0.0,meteohub,2013-10-11 08:12:00,
2013-10-11 04:17:00,55.6,51.1,29.96,NE,46,0.0,2.0,85,0.00,,,0.00,0.0,meteohub,2013-10-11 08:17:00,
2013-10-11 04:22:00,55.6,51.1,29.96,NE,46,1.0,3.0,85,0.00,,,0.00,0.0,meteohub,2013-10-11 08:22:00,
2013-10-11 04:27:00,55.6,51.1,29.96,NE,46,0.0,3.0,85,0.00,,,0.00,0.0,meteohub,2013-10-11 08:27:00,
2013-10-11 04:32:00,55.6,51.1,29.96,NE,46,1.0,2.0,85,0.00,,,0.00,0.0,meteohub,2013-10-11 08:32:00,
2013-10-11 04:37:00,55.8,51.1,29.96,North,11,0.0,3.0,84,0.00,,,0.00,0.0,meteohub,2013-10-11 08:37:00,
2013-10-11 04:42:00,55.8,51.1,29.96,North,11,1.0,3.0,84,0.00,,,0.00,0.0,meteohub,2013-10-11 08:42:00,
2013-10-11 04:47:00,55.9,51.3,29.96,NNE,33,0.0,3.0,84,0.00,,,0.00,0.0,meteohub,2013-10-11 08:47:00,
2013-10-11 04:52:00,55.9,51.3,29.96,NNE,33,0.0,3.0,84,0.00,,,0.00,0.0,meteohub,2013-10-11 08:52:00,
2013-10-11 04:57:00,55.9,51.3,29.97,NNE,15,1.0,3.0,84,0.00,,,0.00,0.0,meteohub,2013-10-11 08:57:00,
2013-10-11 05:02:00,55.9,51.3,29.96,NNE,15,1.0,3.0,84,0.00,,,0.00,0.0,meteohub,2013-10-11 09:02:00,
2013-10-11 05:07:00,55.9,50.9,29.96,NNE,15,1.0,3.0,83,0.00,,,0.00,0.0,meteohub,2013-10-11 09:07:00,
2013-10-11 05:12:00,56.1,51.1,29.96,NE,42,1.0,3.0,83,0.00,,,0.00,0.0,meteohub,2013-10-11 09:12:00,
2013-10-11 05:17:00,56.1,51.1,29.96,NNE,28,1.0,3.0,83,0.00,,,0.00,0.0,meteohub,2013-10-11 09:17:00,
2013-10-11 05:22:00,56.1,51.1,29.96,North,5,2.0,3.0,83,0.00,,,0.00,0.0,meteohub,2013-10-11 09:22:00,
2013-10-11 05:27:00,55.9,50.9,29.96,North,5,1.0,4.0,83,0.00,,,0.00,0.0,meteohub,2013-10-11 09:27:00,
2013-10-11 05:32:00,55.9,51.3,29.96,North,5,2.0,4.0,84,0.00,,,0.00,0.0,meteohub,2013-10-11 09:32:00,
2013-10-11 05:37:00,55.8,51.3,29.96,North,5,2.0,4.0,85,0.00,,,0.00,0.0,meteohub,2013-10-11 09:37:00,
2013-10-11 05:42:00,55.6,51.1,29.96,NNE,12,2.0,3.0,85,0.00,,,0.00,0.0,meteohub,2013-10-11 09:42:00,
2013-10-11 05:47:00,55.2,50.7,29.96,NNE,24,0.0,4.0,85,0.00,,,0.00,0.0,meteohub,2013-10-11 09:47:00,
2013-10-11 05:52:00,55.0,50.5,29.96,NNE,29,1.0,4.0,85,0.00,,,0.00,0.0,meteohub,2013-10-11 09:52:00,
2013-10-11 05:57:00,54.9,50.7,29.97,NNE,32,1.0,4.0,86,0.00,,,0.00,0.0,meteohub,2013-10-11 09:57:00,
2013-10-11 06:02:00,54.7,50.5,29.96,NNE,32,2.0,2.0,86,0.00,,,0.00,0.0,meteohub,2013-10-11 10:02:00,
2013-10-11 06:07:00,54.5,50.4,29.97,ENE,64,0.0,3.0,86,0.00,,,0.00,0.0,meteohub,2013-10-11 10:07:00,
2013-10-11 06:12:00,54.5,50.7,29.97,ENE,64,1.0,3.0,87,0.00,,,0.00,0.0,meteohub,2013-10-11 10:12:00,
2013-10-11 06:17:00,54.5,50.4,29.97,ENE,64,0.0,3.0,86,0.00,,,0.00,0.0,meteohub,2013-10-11 10:17:00,
2013-10-11 06:22:00,54.5,50.4,29.97,ENE,64,0.0,2.0,86,0.00,,,0.00,0.0,meteohub,2013-10-11 10:22:00,
2013-10-11 06:27:00,54.5,50.4,29.97,ENE,64,0.0,2.0,86,0.00,,,0.00,0.0,meteohub,2013-10-11 10:27:00,
2013-10-11 06:32:00,54.3,50.2,29.97,ENE,64,0.0,2.0,86,0.00,,,0.00,0.0,meteohub,2013-10-11 10:32:00,
2013-10-11 06:37:00,54.3,50.2,29.97,ENE,63,1.0,3.0,86,0.00,,,0.00,0.0,meteohub,2013-10-11 10:37:00,
2013-10-11 06:42:00,54.3,50.2,29.97,ENE,63,0.0,3.0,86,0.00,,,0.00,0.0,meteohub,2013-10-11 10:42:00,
2013-10-11 06:47:00,54.3,50.2,29.97,ENE,63,0.0,3.0,86,0.00,,,0.00,0.0,meteohub,2013-10-11 10:47:00,
2013-10-11 06:52:00,54.3,50.5,29.97,ENE,63,0.0,2.0,87,0.00,,,0.00,0.0,meteohub,2013-10-11 10:52:00,
2013-10-11 06:57:00,54.1,50.0,29.97,ENE,63,1.0,1.0,86,0.00,,,0.00,0.0,meteohub,2013-10-11 10:57:00,
2013-10-11 07:02:00,54.1,50.4,29.97,ENE,63,1.0,1.0,87,0.00,,,0.00,0.0,meteohub,2013-10-11 11:02:00,
2013-10-11 07:07:00,54.1,50.4,29.97,ENE,63,0.0,2.0,87,0.00,,,0.00,0.0,meteohub,2013-10-11 11:07:00,
2013-10-11 07:12:00,54.1,50.4,29.97,ENE,63,0.0,2.0,87,0.00,,,0.00,0.0,meteohub,2013-10-11 11:12:00,
2013-10-11 07:17:00,54.1,50.4,29.97,NE,36,0.0,2.0,87,0.00,,,0.00,0.0,meteohub,2013-10-11 11:17:00,
2013-10-11 07:22:00,54.0,50.2,29.98,NE,36,0.0,2.0,87,0.00,,,0.00,0.0,meteohub,2013-10-11 11:22:00,
2013-10-11 07:27:00,54.0,50.2,29.98,NE,36,1.0,2.0,87,0.00,,,0.00,0.0,meteohub,2013-10-11 11:27:00,
2013-10-11 07:32:00,54.0,50.2,29.98,NE,40,0.0,3.0,87,0.00,,,0.00,0.0,meteohub,2013-10-11 11:32:00,
2013-10-11 07:37:00,54.1,50.0,29.98,NE,40,0.0,3.0,86,0.00,,,0.00,0.0,meteohub,2013-10-11 11:37:00,
2013-10-11 07:42:00,54.1,50.0,29.98,NE,40,1.0,3.0,86,0.00,,,0.00,0.0,meteohub,2013-10-11 11:42:00,
2013-10-11 07:47:00,54.1,50.0,29.98,NE,40,0.0,3.0,86,0.00,,,0.00,5.0,meteohub,2013-10-11 11:47:00,
2013-10-11 07:52:00,54.1,50.0,29.98,NE,40,1.0,2.0,86,0.00,,,0.00,5.0,meteohub,2013-10-11 11:52:00,
2013-10-11 07:57:00,54.3,50.2,29.98,NE,40,1.0,2.0,86,0.00,,,0.00,7.0,meteohub,2013-10-11 11:57:00,
2013-10-11 08:02:00,54.3,50.2,29.98,NE,40,1.0,2.0,86,0.00,,,0.00,9.0,meteohub,2013-10-11 12:02:00,
2013-10-11 08:07:00,54.1,50.0,29.98,NE,40,2.0,2.0,86,0.00,,,0.00,9.0,meteohub,2013-10-11 12:07:00,
2013-10-11 08:12:00,54.1,50.0,29.97,NE,40,1.0,2.0,86,0.00,,,0.00,11.0,meteohub,2013-10-11 12:12:00,
2013-10-11 08:17:00,54.1,49.8,29.98,NNE,32,0.0,2.0,85,0.00,,,0.00,12.0,meteohub,2013-10-11 12:17:00,
2013-10-11 08:22:00,54.3,49.8,29.97,NNE,25,0.0,5.0,85,0.00,,,0.00,14.0,meteohub,2013-10-11 12:22:00,
2013-10-11 08:27:00,54.5,50.0,29.98,NNE,25,0.0,5.0,85,0.00,,,0.00,16.0,meteohub,2013-10-11 12:27:00,
2013-10-11 08:32:00,54.7,50.0,29.98,NE,38,0.0,5.0,84,0.00,,,0.00,18.0,meteohub,2013-10-11 12:32:00,
2013-10-11 08:37:00,54.9,50.4,29.98,NE,38,0.0,3.0,85,0.00,,,0.00,21.0,meteohub,2013-10-11 12:37:00,
2013-10-11 08:42:00,54.9,50.2,29.98,NE,38,1.0,3.0,84,0.00,,,0.00,23.0,meteohub,2013-10-11 12:42:00,
2013-10-11 08:47:00,54.9,50.2,29.98,NE,38,0.0,2.0,84,0.00,,,0.00,25.0,meteohub,2013-10-11 12:47:00,
2013-10-11 08:52:00,55.0,50.5,29.99,NE,38,1.0,2.0,85,0.00,,,0.00,26.0,meteohub,2013-10-11 12:52:00,
2013-10-11 08:57:00,55.0,50.4,29.99,NE,40,1.0,2.0,84,0.00,,,0.00,30.0,meteohub,2013-10-11 12:57:00,
2013-10-11 09:02:00,55.0,50.4,29.99,NE,40,0.0,2.0,84,0.00,,,0.00,32.0,meteohub,2013-10-11 13:02:00,
2013-10-11 09:07:00,55.2,50.5,29.99,NE,40,0.0,2.0,84,0.00,,,0.00,33.0,meteohub,2013-10-11 13:07:00,
2013-10-11 09:12:00,55.2,50.5,29.99,NE,40,0.0,2.0,84,0.00,,,0.00,33.0,meteohub,2013-10-11 13:12:00,
2013-10-11 09:17:00,55.4,50.7,29.99,NE,40,0.0,0.0,84,0.00,,,0.00,37.0,meteohub,2013-10-11 13:17:00,
2013-10-11 09:22:00,55.6,50.9,29.99,NE,40,0.0,0.0,84,0.00,,,0.00,37.0,meteohub,2013-10-11 13:22:00,
2013-10-11 09:27:00,55.8,51.1,29.99,NE,40,0.0,0.0,84,0.00,,,0.00,42.0,meteohub,2013-10-11 13:27:00,
2013-10-11 09:32:00,55.8,51.3,29.99,NE,40,0.0,0.0,85,0.00,,,0.00,47.0,meteohub,2013-10-11 13:32:00,
2013-10-11 09:37:00,55.9,51.3,29.99,SSW,202,0.0,0.0,84,0.00,,,0.00,58.0,meteohub,2013-10-11 13:37:00,
2013-10-11 09:42:00,56.3,51.4,29.99,South,182,0.0,0.0,84,0.00,,,0.00,46.0,meteohub,2013-10-11 13:42:00,
2013-10-11 09:47:00,56.7,51.6,29.99,NE,42,2.0,0.0,83,0.00,,,0.00,46.0,meteohub,2013-10-11 13:47:00,
2013-10-11 09:52:00,57.0,52.0,29.99,NNE,19,0.0,3.0,83,0.00,,,0.00,49.0,meteohub,2013-10-11 13:52:00,
2013-10-11 09:57:00,57.4,52.0,29.99,SSE,165,0.0,3.0,82,0.00,,,0.00,49.0,meteohub,2013-10-11 13:57:00,
2013-10-11 10:02:00,57.7,52.3,29.99,NNE,22,0.0,3.0,82,0.00,,,0.00,51.0,meteohub,2013-10-11 14:02:00,
2013-10-11 10:07:00,57.9,52.2,29.99,NE,53,0.0,2.0,81,0.00,,,0.00,141.0,meteohub,2013-10-11 14:07:00,
2013-10-11 10:12:00,59.0,52.9,29.99,East,98,0.0,2.0,80,0.00,,,0.00,65.0,meteohub,2013-10-11 14:12:00,
2013-10-11 10:17:00,59.7,52.9,29.99,NNE,28,2.0,2.0,78,0.00,,,0.00,60.0,meteohub,2013-10-11 14:17:00,
2013-10-11 10:22:00,60.4,52.9,29.99,North,5,0.0,2.0,76,0.00,,,0.00,60.0,meteohub,2013-10-11 14:22:00,
2013-10-11 10:27:00,61.2,52.9,29.99,NNE,33,2.0,2.0,74,0.00,,,0.00,151.0,meteohub,2013-10-11 14:27:00,
2013-10-11 10:32:00,61.7,52.5,29.99,NNE,33,0.0,2.0,72,0.00,,,0.00,538.0,meteohub,2013-10-11 14:32:00,
2013-10-11 10:37:00,62.6,53.4,29.99,NE,55,0.0,2.0,72,0.00,,,0.00,552.0,meteohub,2013-10-11 14:37:00,
2013-10-11 10:42:00,63.1,53.2,29.98,North,5,0.0,2.0,70,0.00,,,0.00,563.0,meteohub,2013-10-11 14:42:00,
2013-10-11 10:47:00,64.2,55.4,29.98,West,263,0.0,2.0,73,0.00,,,0.00,575.0,meteohub,2013-10-11 14:47:00,
2013-10-11 10:52:00,64.6,54.5,29.98,SSW,192,0.0,2.0,70,0.00,,,0.00,589.0,meteohub,2013-10-11 14:52:00,
2013-10-11 10:57:00,65.1,55.4,29.99,SE,146,0.0,3.0,71,0.00,,,0.00,599.0,meteohub,2013-10-11 14:57:00,
2013-10-11 11:02:00,65.7,55.2,29.98,SSE,155,0.0,3.0,69,0.00,,,0.00,613.0,meteohub,2013-10-11 15:02:00,
2013-10-11 11:07:00,66.4,55.9,29.98,NE,45,1.0,2.0,69,0.00,,,0.00,624.0,meteohub,2013-10-11 15:07:00,
2013-10-11 11:12:00,66.9,55.6,29.98,NNW,342,1.0,2.0,67,0.00,,,0.00,633.0,meteohub,2013-10-11 15:12:00,
2013-10-11 11:17:00,67.3,56.3,29.98,NNW,342,2.0,2.0,68,0.00,,,0.00,647.0,meteohub,2013-10-11 15:17:00,
2013-10-11 11:22:00,67.6,56.7,29.98,NNW,342,0.0,2.0,68,0.00,,,0.00,656.0,meteohub,2013-10-11 15:22:00,
2013-10-11 11:27:00,67.8,56.5,29.98,NNW,340,1.0,2.0,67,0.00,,,0.00,663.0,meteohub,2013-10-11 15:27:00,
2013-10-11 11:32:00,68.4,57.4,29.98,South,172,1.0,2.0,68,0.00,,,0.00,675.0,meteohub,2013-10-11 15:32:00,
2013-10-11 11:37:00,68.2,55.0,29.98,South,184,1.0,3.0,63,0.00,,,0.00,682.0,meteohub,2013-10-11 15:37:00,
2013-10-11 11:42:00,68.7,59.0,29.98,South,173,0.0,3.0,71,0.00,,,0.00,689.0,meteohub,2013-10-11 15:42:00,
2013-10-11 11:47:00,69.1,58.1,29.98,South,188,0.0,3.0,68,0.00,,,0.00,698.0,meteohub,2013-10-11 15:47:00,
2013-10-11 11:52:00,68.7,56.8,29.97,South,190,2.0,3.0,66,0.00,,,0.00,705.0,meteohub,2013-10-11 15:52:00,
2013-10-11 11:57:00,69.6,55.9,29.98,WSW,244,1.0,3.0,62,0.00,,,0.00,717.0,meteohub,2013-10-11 15:57:00,
2013-10-11 12:02:00,68.2,54.1,29.97,SSW,200,1.0,3.0,61,0.00,,,0.00,722.0,meteohub,2013-10-11 16:02:00,
2013-10-11 12:07:00,68.4,56.5,29.97,SSW,212,0.0,3.0,66,0.00,,,0.00,729.0,meteohub,2013-10-11 16:07:00,
2013-10-11 12:12:00,68.5,55.0,29.97,SSE,166,2.0,3.0,62,0.00,,,0.00,737.0,meteohub,2013-10-11 16:12:00,
2013-10-11 12:17:00,68.7,55.6,29.97,NNE,23,0.0,5.0,63,0.00,,,0.00,754.0,meteohub,2013-10-11 16:17:00,
2013-10-11 12:22:00,69.1,57.2,29.97,SSW,207,0.0,5.0,66,0.00,,,0.00,752.0,meteohub,2013-10-11 16:22:00,
2013-10-11 12:27:00,70.0,57.7,29.97,West,269,1.0,5.0,65,0.00,,,0.00,770.0,meteohub,2013-10-11 16:27:00,
2013-10-11 12:32:00,69.6,53.8,29.97,SSW,205,2.0,4.0,57,0.00,,,0.00,758.0,meteohub,2013-10-11 16:32:00,
2013-10-11 12:37:00,68.7,55.2,29.97,SSW,208,1.0,4.0,62,0.00,,,0.00,766.0,meteohub,2013-10-11 16:37:00,
2013-10-11 12:42:00,70.3,55.4,29.97,South,184,0.0,3.0,59,0.00,,,0.00,768.0,meteohub,2013-10-11 16:42:00,
2013-10-11 12:47:00,70.2,57.9,29.96,South,171,1.0,3.0,65,0.00,,,0.00,773.0,meteohub,2013-10-11 16:47:00,
2013-10-11 12:52:00,69.4,55.4,29.96,SW,221,0.0,3.0,61,0.00,,,0.00,775.0,meteohub,2013-10-11 16:52:00,
2013-10-11 12:57:00,70.3,55.8,29.96,SW,217,0.0,3.0,60,0.00,,,0.00,777.0,meteohub,2013-10-11 16:57:00,
2013-10-11 13:02:00,70.0,55.9,29.96,SSE,157,0.0,3.0,61,0.00,,,0.00,777.0,meteohub,2013-10-11 17:02:00,
2013-10-11 13:07:00,70.5,58.1,29.96,SSE,155,2.0,3.0,65,0.00,,,0.00,775.0,meteohub,2013-10-11 17:07:00,
2013-10-11 13:12:00,71.1,60.8,29.96,NNE,13,1.0,4.0,70,0.00,,,0.00,789.0,meteohub,2013-10-11 17:12:00,
2013-10-11 13:17:00,70.9,57.7,29.96,ENE,72,1.0,4.0,63,0.00,,,0.00,780.0,meteohub,2013-10-11 17:17:00,
2013-10-11 13:22:00,70.9,55.4,29.95,SSW,200,0.0,4.0,58,0.00,,,0.00,784.0,meteohub,2013-10-11 17:22:00,
2013-10-11 13:27:00,71.8,57.2,29.95,North,5,1.0,4.0,60,0.00,,,0.00,779.0,meteohub,2013-10-11 17:27:00,
2013-10-11 13:32:00,71.2,56.7,29.95,SSW,206,2.0,4.0,60,0.00,,,0.00,782.0,meteohub,2013-10-11 17:32:00,
2013-10-11 13:37:00,70.5,57.4,29.95,SSW,208,1.0,3.0,63,0.00,,,0.00,777.0,meteohub,2013-10-11 17:37:00,
2013-10-11 13:42:00,72.0,57.7,29.94,SW,221,2.0,5.0,61,0.00,,,0.00,779.0,meteohub,2013-10-11 17:42:00,
2013-10-11 13:47:00,72.3,54.7,29.94,South,184,2.0,5.0,54,0.00,,,0.00,773.0,meteohub,2013-10-11 17:47:00,
2013-10-11 13:52:00,72.1,57.0,29.94,South,190,1.0,5.0,59,0.00,,,0.00,768.0,meteohub,2013-10-11 17:52:00,
2013-10-11 13:57:00,72.0,56.8,29.94,South,178,1.0,4.0,59,0.00,,,0.00,770.0,meteohub,2013-10-11 17:57:00,
2013-10-11 14:02:00,71.2,55.8,29.94,SSE,158,1.0,4.0,58,0.00,,,0.00,763.0,meteohub,2013-10-11 18:02:00,
2013-10-11 14:07:00,71.8,52.7,29.93,SSE,167,0.0,3.0,51,0.00,,,0.00,761.0,meteohub,2013-10-11 18:07:00,
2013-10-11 14:12:00,72.9,52.0,29.93,South,176,1.0,3.0,48,0.00,,,0.00,759.0,meteohub,2013-10-11 18:12:00,
2013-10-11 14:17:00,72.9,50.9,29.93,SSE,156,1.0,3.0,46,0.00,,,0.00,754.0,meteohub,2013-10-11 18:17:00,
2013-10-11 14:22:00,73.2,53.4,29.93,SW,231,1.0,3.0,50,0.00,,,0.00,751.0,meteohub,2013-10-11 18:22:00,
2013-10-11 14:27:00,73.2,55.6,29.93,SW,215,1.0,3.0,54,0.00,,,0.00,740.0,meteohub,2013-10-11 18:27:00,
2013-10-11 14:32:00,72.5,53.4,29.92,SSW,202,0.0,3.0,51,0.00,,,0.00,729.0,meteohub,2013-10-11 18:32:00,
2013-10-11 14:37:00,73.0,54.9,29.92,SSW,194,1.0,4.0,53,0.00,,,0.00,724.0,meteohub,2013-10-11 18:37:00,
2013-10-11 14:42:00,72.1,53.6,29.92,SSE,159,1.0,4.0,52,0.00,,,0.00,721.0,meteohub,2013-10-11 18:42:00,
2013-10-11 14:47:00,72.5,53.4,29.92,NNE,28,2.0,4.0,51,0.00,,,0.00,712.0,meteohub,2013-10-11 18:47:00,
2013-10-11 14:52:00,72.5,54.0,29.92,ENE,66,1.0,3.0,52,0.00,,,0.00,705.0,meteohub,2013-10-11 18:52:00,
2013-10-11 14:57:00,72.3,52.7,29.92,SSE,164,1.0,3.0,50,0.00,,,0.00,698.0,meteohub,2013-10-11 18:57:00,
2013-10-11 15:02:00,72.5,55.9,29.92,SW,229,1.0,3.0,56,0.00,,,0.00,687.0,meteohub,2013-10-11 19:02:00,
2013-10-11 15:07:00,72.9,52.0,29.92,SSE,152,1.0,2.0,48,0.00,,,0.00,679.0,meteohub,2013-10-11 19:07:00,
2013-10-11 15:12:00,71.8,54.3,29.92,SE,143,2.0,3.0,54,0.00,,,0.00,668.0,meteohub,2013-10-11 19:12:00,
2013-10-11 15:17:00,72.9,53.6,29.92,SSW,212,0.0,3.0,51,0.00,,,0.00,661.0,meteohub,2013-10-11 19:17:00,
2013-10-11 15:22:00,73.2,57.6,29.92,ESE,115,1.0,3.0,58,0.00,,,0.00,649.0,meteohub,2013-10-11 19:22:00,
2013-10-11 15:27:00,72.3,53.2,29.92,WNW,302,1.0,3.0,51,0.00,,,0.00,642.0,meteohub,2013-10-11 19:27:00,
2013-10-11 15:32:00,72.3,52.7,29.92,SSW,202,0.0,5.0,50,0.00,,,0.00,629.0,meteohub,2013-10-11 19:32:00,
2013-10-11 15:37:00,72.3,53.8,29.92,SSW,200,0.0,5.0,52,0.00,,,0.00,617.0,meteohub,2013-10-11 19:37:00,
2013-10-11 15:42:00,72.9,54.7,29.92,SSW,202,0.0,5.0,53,0.00,,,0.00,606.0,meteohub,2013-10-11 19:42:00,
2013-10-11 15:47:00,72.7,51.3,29.92,SSW,194,1.0,3.0,47,0.00,,,0.00,592.0,meteohub,2013-10-11 19:47:00,
2013-10-11 15:52:00,72.5,51.1,29.92,SW,223,1.0,3.0,47,0.00,,,0.00,584.0,meteohub,2013-10-11 19:52:00,
2013-10-11 15:57:00,72.3,52.7,29.92,South,190,0.0,3.0,50,0.00,,,0.00,570.0,meteohub,2013-10-11 19:57:00,
2013-10-11 16:02:00,72.1,54.5,29.92,South,190,0.0,3.0,54,0.00,,,0.00,555.0,meteohub,2013-10-11 20:02:00,
2013-10-11 16:07:00,72.3,52.7,29.92,SSE,163,0.0,3.0,50,0.00,,,0.00,541.0,meteohub,2013-10-11 20:07:00,
2013-10-11 16:12:00,71.8,49.8,29.92,SSE,163,0.0,3.0,46,0.00,,,0.00,529.0,meteohub,2013-10-11 20:12:00,
2013-10-11 16:17:00,71.6,51.4,29.92,SSW,202,1.0,3.0,49,0.00,,,0.00,517.0,meteohub,2013-10-11 20:17:00,
2013-10-11 16:22:00,71.8,52.7,29.92,South,172,0.0,5.0,51,0.00,,,0.00,503.0,meteohub,2013-10-11 20:22:00,
2013-10-11 16:27:00,71.2,50.5,29.92,SE,142,0.0,5.0,48,0.00,,,0.00,490.0,meteohub,2013-10-11 20:27:00,
2013-10-11 16:32:00,71.2,51.1,29.92,East,91,0.0,3.0,49,0.00,,,0.00,475.0,meteohub,2013-10-11 20:32:00,
2013-10-11 16:37:00,71.8,49.3,29.92,SSE,155,3.0,3.0,45,0.00,,,0.00,461.0,meteohub,2013-10-11 20:37:00,
2013-10-11 16:42:00,70.9,49.1,29.93,SSE,157,0.0,3.0,46,0.00,,,0.00,446.0,meteohub,2013-10-11 20:42:00,
2013-10-11 16:47:00,70.3,51.8,29.92,NE,42,0.0,3.0,52,0.00,,,0.00,427.0,meteohub,2013-10-11 20:47:00,
2013-10-11 16:52:00,70.0,53.1,29.92,SSW,204,0.0,3.0,55,0.00,,,0.00,413.0,meteohub,2013-10-11 20:52:00,
2013-10-11 16:57:00,70.0,53.1,29.92,SSW,205,0.0,2.0,55,0.00,,,0.00,396.0,meteohub,2013-10-11 20:57:00,
2013-10-11 17:02:00,69.1,51.3,29.92,WSW,239,0.0,3.0,53,0.00,,,0.00,381.0,meteohub,2013-10-11 21:02:00,
2013-10-11 17:07:00,69.1,52.2,29.92,WSW,239,1.0,3.0,55,0.00,,,0.00,366.0,meteohub,2013-10-11 21:07:00,
2013-10-11 17:12:00,68.7,52.9,29.93,WSW,239,0.0,3.0,57,0.00,,,0.00,348.0,meteohub,2013-10-11 21:12:00,
2013-10-11 17:17:00,69.1,49.6,29.92,South,175,0.0,2.0,50,0.00,,,0.00,330.0,meteohub,2013-10-11 21:17:00,
2013-10-11 17:22:00,67.8,54.0,29.93,South,175,0.0,3.0,61,0.00,,,0.00,183.0,meteohub,2013-10-11 21:22:00,
2013-10-11 17:27:00,67.8,53.4,29.92,South,175,0.0,3.0,60,0.00,,,0.00,130.0,meteohub,2013-10-11 21:27:00,
2013-10-11 17:32:00,67.5,53.1,29.92,South,175,0.0,2.0,60,0.00,,,0.00,58.0,meteohub,2013-10-11 21:32:00,
2013-10-11 17:37:00,66.9,53.1,29.93,South,175,0.0,0.0,61,0.00,,,0.00,37.0,meteohub,2013-10-11 21:37:00,
2013-10-11 17:42:00,66.6,52.7,29.93,South,175,0.0,0.0,61,0.00,,,0.00,35.0,meteohub,2013-10-11 21:42:00,
2013-10-11 17:47:00,66.2,53.6,29.92,South,175,0.0,0.0,64,0.00,,,0.00,33.0,meteohub,2013-10-11 21:47:00,
2013-10-11 17:52:00,65.7,54.3,29.93,South,175,0.0,0.0,67,0.00,,,0.00,32.0,meteohub,2013-10-11 21:52:00,
2013-10-11 17:57:00,65.3,53.2,29.93,South,175,0.0,0.0,65,0.00,,,0.00,30.0,meteohub,2013-10-11 21:57:00,
2013-10-11 18:02:00,64.9,53.8,29.93,South,175,0.0,0.0,67,0.00,,,0.00,28.0,meteohub,2013-10-11 22:02:00,
2013-10-11 18:07:00,64.9,52.5,29.93,South,175,0.0,0.0,64,0.00,,,0.00,28.0,meteohub,2013-10-11 22:07:00,
2013-10-11 18:12:00,64.9,52.9,29.93,South,175,0.0,1.0,65,0.00,,,0.00,25.0,meteohub,2013-10-11 22:12:00,
2013-10-11 18:17:00,64.9,52.0,29.93,South,175,0.0,1.0,63,0.00,,,0.00,23.0,meteohub,2013-10-11 22:17:00,
2013-10-11 18:22:00,64.9,52.0,29.93,South,175,1.0,1.0,63,0.00,,,0.00,21.0,meteohub,2013-10-11 22:22:00,
2013-10-11 18:27:00,64.9,52.0,29.93,South,175,0.0,3.0,63,0.00,,,0.00,19.0,meteohub,2013-10-11 22:27:00,
2013-10-11 18:32:00,64.8,51.8,29.93,South,175,1.0,3.0,63,0.00,,,0.00,16.0,meteohub,2013-10-11 22:32:00,
2013-10-11 18:37:00,64.9,52.0,29.93,North,9,0.0,3.0,63,0.00,,,0.00,12.0,meteohub,2013-10-11 22:37:00,
2013-10-11 18:42:00,64.8,53.1,29.93,North,9,0.0,2.0,66,0.00,,,0.00,7.0,meteohub,2013-10-11 22:42:00,
2013-10-11 18:47:00,63.7,52.9,29.93,North,9,0.0,2.0,68,0.00,,,0.00,5.0,meteohub,2013-10-11 22:47:00,
2013-10-11 18:52:00,63.0,51.8,29.94,North,9,0.0,2.0,67,0.00,,,0.00,5.0,meteohub,2013-10-11 22:52:00,
2013-10-11 18:57:00,62.8,52.0,29.94,North,9,0.0,1.0,68,0.00,,,0.00,0.0,meteohub,2013-10-11 22:57:00,
2013-10-11 19:02:00,62.2,52.3,29.94,North,9,0.0,1.0,70,0.00,,,0.00,0.0,meteohub,2013-10-11 23:02:00,
2013-10-11 19:07:00,61.9,52.0,29.94,North,9,0.0,2.0,70,0.00,,,0.00,0.0,meteohub,2013-10-11 23:07:00,
2013-10-11 19:12:00,61.5,52.7,29.94,North,9,0.0,2.0,73,0.00,,,0.00,0.0,meteohub,2013-10-11 23:12:00,
2013-10-11 19:17:00,61.9,52.3,29.94,NNE,15,0.0,3.0,71,0.00,,,0.00,0.0,meteohub,2013-10-11 23:17:00,
2013-10-11 19:22:00,61.5,52.3,29.94,NNE,15,0.0,3.0,72,0.00,,,0.00,0.0,meteohub,2013-10-11 23:22:00,
2013-10-11 19:27:00,61.0,52.3,29.94,NNE,15,0.0,3.0,73,0.00,,,0.00,0.0,meteohub,2013-10-11 23:27:00,
2013-10-11 19:32:00,60.4,52.2,29.94,NNE,15,0.0,2.0,74,0.00,,,0.00,0.0,meteohub,2013-10-11 23:32:00,
2013-10-11 19:37:00,60.1,52.5,29.94,NNE,15,0.0,1.0,76,0.00,,,0.00,0.0,meteohub,2013-10-11 23:37:00,
2013-10-11 19:42:00,59.5,52.3,29.94,NNE,14,0.0,1.0,77,0.00,,,0.00,0.0,meteohub,2013-10-11 23:42:00,
2013-10-11 19:47:00,59.2,52.7,29.94,NNE,14,0.0,1.0,79,0.00,,,0.00,0.0,meteohub,2013-10-11 23:47:00,
2013-10-11 19:52:00,58.6,52.5,29.94,NNE,14,0.0,1.0,80,0.00,,,0.00,0.0,meteohub,2013-10-11 23:52:00,
2013-10-11 19:57:00,58.3,52.5,29.94,NNE,14,1.0,1.0,81,0.00,,,0.00,0.0,meteohub,2013-10-11 23:57:00,
2013-10-11 20:02:00,58.1,52.9,29.94,NNE,14,0.0,1.0,83,0.00,,,0.00,0.0,meteohub,2013-10-12 00:02:00,
2013-10-11 20:07:00,57.7,52.7,29.95,NNE,14,0.0,1.0,83,0.00,,,0.00,0.0,meteohub,2013-10-12 00:07:00,
2013-10-11 20:12:00,57.7,52.7,29.95,North,10,0.0,1.0,83,0.00,,,0.00,0.0,meteohub,2013-10-12 00:12:00,
2013-10-11 20:17:00,57.6,52.5,29.95,North,10,0.0,2.0,83,0.00,,,0.00,0.0,meteohub,2013-10-12 00:17:00,
2013-10-11 20:22:00,57.6,52.5,29.96,North,10,0.0,2.0,83,0.00,,,0.00,0.0,meteohub,2013-10-12 00:22:00,
2013-10-11 20:27:00,57.6,52.5,29.96,NNE,13,0.0,1.0,83,0.00,,,0.00,0.0,meteohub,2013-10-12 00:27:00,
2013-10-11 20:32:00,57.6,52.7,29.96,NNE,13,0.0,2.0,84,0.00,,,0.00,0.0,meteohub,2013-10-12 00:32:00,
2013-10-11 20:37:00,57.6,52.5,29.96,NNE,13,0.0,2.0,83,0.00,,,0.00,0.0,meteohub,2013-10-12 00:37:00,
2013-10-11 20:42:00,57.6,52.5,29.96,NNE,13,0.0,2.0,83,0.00,,,0.00,0.0,meteohub,2013-10-12 00:42:00,
2013-10-11 20:47:00,57.6,52.5,29.96,NNE,13,0.0,1.0,83,0.00,,,0.00,0.0,meteohub,2013-10-12 00:47:00,
2013-10-11 20:52:00,57.7,52.7,29.96,NNE,13,1.0,1.0,83,0.00,,,0.00,0.0,meteohub,2013-10-12 00:52:00,
2013-10-11 20:57:00,57.9,52.5,29.96,NNE,13,1.0,2.0,82,0.00,,,0.00,0.0,meteohub,2013-10-12 00:57:00,
2013-10-11 21:02:00,58.5,52.3,29.96,NNE,13,0.0,3.0,80,0.00,,,0.00,0.0,meteohub,2013-10-12 01:02:00,
2013-10-11 21:07:00,58.6,52.5,29.96,NNE,13,0.0,3.0,80,0.00,,,0.00,0.0,meteohub,2013-10-12 01:07:00,
2013-10-11 21:12:00,58.5,52.7,29.95,NNE,13,1.0,3.0,81,0.00,,,0.00,0.0,meteohub,2013-10-12 01:12:00,
2013-10-11 21:17:00,58.3,52.5,29.95,NNE,13,0.0,2.0,81,0.00,,,0.00,0.0,meteohub,2013-10-12 01:17:00,
2013-10-11 21:22:00,57.7,52.7,29.95,NNE,13,0.0,2.0,83,0.00,,,0.00,0.0,meteohub,2013-10-12 01:22:00,
2013-10-11 21:27:00,57.7,52.3,29.95,NNE,17,0.0,1.0,82,0.00,,,0.00,0.0,meteohub,2013-10-12 01:27:00,
2013-10-11 21:32:00,57.9,52.5,29.95,NNE,17,0.0,2.0,82,0.00,,,0.00,0.0,meteohub,2013-10-12 01:32:00,
2013-10-11 21:37:00,57.9,52.5,29.95,NNE,17,0.0,2.0,82,0.00,,,0.00,0.0,meteohub,2013-10-12 01:37:00,
2013-10-11 21:42:00,57.6,52.2,29.95,NNE,17,0.0,2.0,82,0.00,,,0.00,0.0,meteohub,2013-10-12 01:42:00,
2013-10-11 21:47:00,57.2,52.2,29.95,South,173,0.0,1.0,83,0.00,,,0.00,0.0,meteohub,2013-10-12 01:47:00,
2013-10-11 21:52:00,57.0,52.0,29.95,South,173,0.0,2.0,83,0.00,,,0.00,0.0,meteohub,2013-10-12 01:52:00,
2013-10-11 21:57:00,57.4,52.3,29.96,South,173,0.0,2.0,83,0.00,,,0.00,0.0,meteohub,2013-10-12 01:57:00,
2013-10-11 22:02:00,57.6,52.2,29.96,South,173,0.0,2.0,82,0.00,,,0.00,0.0,meteohub,2013-10-12 02:02:00,
2013-10-11 22:07:00,57.9,52.2,29.95,South,173,0.0,1.0,81,0.00,,,0.00,0.0,meteohub,2013-10-12 02:07:00,
2013-10-11 22:13:00,57.9,52.5,29.96,South,171,0.0,1.0,82,0.00,,,0.00,0.0,meteohub,2013-10-12 02:13:00,
2013-10-11 22:18:00,57.6,52.2,29.96,South,171,0.0,1.0,82,0.00,,,0.00,0.0,meteohub,2013-10-12 02:18:00,
2013-10-11 22:23:00,57.6,52.2,29.96,South,171,0.0,1.0,82,0.00,,,0.00,0.0,meteohub,2013-10-12 02:23:00,
2013-10-11 22:28:00,57.4,52.3,29.96,South,171,0.0,1.0,83,0.00,,,0.00,0.0,meteohub,2013-10-12 02:28:00,
2013-10-11 22:33:00,57.6,52.5,29.96,South,171,0.0,1.0,83,0.00,,,0.00,0.0,meteohub,2013-10-12 02:33:00,
2013-10-11 22:38:00,57.2,52.2,29.96,South,171,0.0,1.0,83,0.00,,,0.00,0.0,meteohub,2013-10-12 02:38:00,
2013-10-11 22:43:00,57.0,52.0,29.96,South,171,0.0,0.0,83,0.00,,,0.00,0.0,meteohub,2013-10-12 02:43:00,
2013-10-11 22:48:00,57.0,52.0,29.96,South,171,0.0,0.0,83,0.00,,,0.00,0.0,meteohub,2013-10-12 02:48:00,
2013-10-11 22:53:00,56.8,52.0,29.96,South,171,0.0,0.0,84,0.00,,,0.00,0.0,meteohub,2013-10-12 02:53:00,
2013-10-11 22:58:00,56.8,52.0,29.96,South,171,0.0,0.0,84,0.00,,,0.00,0.0,meteohub,2013-10-12 02:58:00,
2013-10-11 23:03:00,57.0,52.2,29.96,SSE,154,0.0,1.0,84,0.00,,,0.00,0.0,meteohub,2013-10-12 03:03:00,
2013-10-11 23:08:00,57.4,52.5,29.96,SSE,154,0.0,1.0,84,0.00,,,0.00,0.0,meteohub,2013-10-12 03:08:00,
2013-10-11 23:14:00,57.4,52.5,29.96,SSE,154,0.0,1.0,84,0.00,,,0.00,0.0,meteohub,2013-10-12 03:14:00,
2013-10-11 23:19:00,57.4,52.5,29.96,SSE,154,0.0,1.0,84,0.00,,,0.00,0.0,meteohub,2013-10-12 03:19:00,
2013-10-11 23:24:00,57.6,52.7,29.95,SSE,154,0.0,1.0,84,0.00,,,0.00,0.0,meteohub,2013-10-12 03:24:00,
2013-10-11 23:29:00,57.6,52.5,29.95,NE,53,0.0,1.0,83,0.00,,,0.00,0.0,meteohub,2013-10-12 03:29:00,
2013-10-11 23:34:00,57.6,52.7,29.95,NE,53,0.0,1.0,84,0.00,,,0.00,0.0,meteohub,2013-10-12 03:34:00,
2013-10-11 23:39:00,57.0,52.5,29.95,NE,53,0.0,1.0,85,0.00,,,0.00,0.0,meteohub,2013-10-12 03:39:00,
2013-10-11 23:44:00,56.8,52.3,29.95,NE,53,0.0,1.0,85,0.00,,,0.00,0.0,meteohub,2013-10-12 03:44:00,
2013-10-11 23:49:00,56.7,52.5,29.95,NE,53,0.0,1.0,86,0.00,,,0.00,0.0,meteohub,2013-10-12 03:49:00,
2013-10-11 23:54:00,56.8,52.7,29.95,NE,53,0.0,1.0,86,0.00,,,0.00,0.0,meteohub,2013-10-12 03:54:00,